When you browse on this site, cookies collect data to enhance your experience and personalize the content and advertising you see.
Visit our Privacy Policy to learn more. By continuing to use the site, you agree to this use of cookies and data.
  • In United Kingdom
  • List of Countries
  • For 7 days
  • Water Temperature
  • Satellite Maps
  • Weather Map
  • Weather Widgets
  • user-avatar
    Login

    Hourly Weather Boguslav

    Today, 19 November, Monday

    Time Temperature Precipitation Wind Pressure Humidity
    00:00 -2°C° 0 mm 1 mps 753 mmHg 72%
    01:00 -2°C° 0 mm 1 mps 753 mmHg 73%
    02:00 -2°C° 0 mm 1 mps 753 mmHg 79%
    03:00 -2°C° 0 mm 1 mps 753 mmHg 79%
    04:00 -2°C° 0 mm 1 mps 753 mmHg 79%
    05:00 -5°C° 0 mm 2 mps 753 mmHg 80%
    06:00 -4°C° 0 mm 2 mps 753 mmHg 79%
    07:00 -4°C° 0 mm 2 mps 753 mmHg 79%
    08:00 -5°C° 0 mm 3 mps 753 mmHg 78%
    09:00 -4°C° 0 mm 3 mps 753 mmHg 76%
    10:00 -2°C° 0 mm 3 mps 753 mmHg 73%
    11:00 -1°C° 0 mm 3 mps 753 mmHg 71%
    12:00 -2°C° 0 mm 4 mps 753 mmHg 70%
    13:00 -2°C° 0 mm 4 mps 752 mmHg 68%
    14:00 -1°C° 0 mm 5 mps 752 mmHg 67%
    15:00 -2°C° 0 mm 5 mps 752 mmHg 67%
    16:00 -2°C° 0 mm 5 mps 752 mmHg 67%
    17:00 -4°C° 0 mm 5 mps 752 mmHg 67%
    18:00 -4°C° 0 mm 5 mps 752 mmHg 68%
    19:00 -3°C° 0 mm 4 mps 752 mmHg 68%
    20:00 -3°C° 0 mm 4 mps 752 mmHg 69%
    21:00 -3°C° 0.1 mm 4 mps 752 mmHg 71%
    22:00 -4°C° 0.1 mm 5 mps 752 mmHg 74%
    23:00 -4°C° 0.1 mm 5 mps 752 mmHg 76%

    Tomorrow, 20 November, Tuesday

    Time Temperature Precipitation Wind Pressure Humidity
    00:00 -5°C° 0.4 mm 5 mps 752 mmHg 80%
    01:00 -5°C° 0.4 mm 5 mps 752 mmHg 83%
    02:00 -5°C° 0.4 mm 6 mps 752 mmHg 86%
    03:00 -5°C° 0.3 mm 5 mps 752 mmHg 85%
    04:00 -5°C° 0.3 mm 5 mps 752 mmHg 85%
    05:00 -5°C° 0.3 mm 5 mps 752 mmHg 84%
    06:00 -5°C° 0 mm 5 mps 752 mmHg 84%
    07:00 -5°C° 0 mm 5 mps 752 mmHg 83%
    08:00 -5°C° 0 mm 4 mps 753 mmHg 83%
    09:00 -5°C° 0 mm 5 mps 753 mmHg 82%
    10:00 -4°C° 0 mm 5 mps 753 mmHg 81%
    11:00 -2°C° 0 mm 5 mps 753 mmHg 80%
    12:00 -2°C° 0 mm 5 mps 753 mmHg 81%
    13:00 -2°C° 0 mm 4 mps 753 mmHg 83%
    14:00 -2°C° 0 mm 4 mps 753 mmHg 84%
    15:00 -2°C° 0 mm 4 mps 754 mmHg 86%
    16:00 -3°C° 0 mm 4 mps 754 mmHg 88%
    17:00 -4°C° 0 mm 4 mps 754 mmHg 90%
    18:00 -4°C° 0 mm 4 mps 754 mmHg 91%
    19:00 -4°C° 0 mm 3 mps 754 mmHg 91%
    20:00 -4°C° 0 mm 3 mps 754 mmHg 91%
    21:00 -4°C° 0 mm 3 mps 754 mmHg 91%
    22:00 -4°C° 0 mm 3 mps 755 mmHg 91%
    23:00 -5°C° 0 mm 3 mps 755 mmHg 92%

    Day after tomorrow, 21 November, Wednesday

    Time Temperature Precipitation Wind Pressure Humidity
    00:00 -4°C° 0 mm 2 mps 755 mmHg 92%
    01:00 -4°C° 0 mm 2 mps 755 mmHg 92%
    02:00 -4°C° 0 mm 2 mps 755 mmHg 93%
    03:00 -4°C° 0 mm 2 mps 755 mmHg 92%
    04:00 -4°C° 0 mm 2 mps 754 mmHg 92%
    05:00 -4°C° 0 mm 2 mps 754 mmHg 91%
    06:00 -4°C° 0 mm 2 mps 754 mmHg 90%
    07:00 -4°C° 0 mm 2 mps 755 mmHg 90%
    08:00 -4°C° 0 mm 2 mps 755 mmHg 89%
    09:00 -3°C° 0 mm 2 mps 755 mmHg 87%
    10:00 -2°C° 0 mm 3 mps 755 mmHg 84%
    11:00 -2°C° 0 mm 3 mps 755 mmHg 81%
    12:00 -1°C° 0 mm 3 mps 754 mmHg 81%
    13:00 -1°C° 0 mm 3 mps 754 mmHg 81%
    14:00 -1°C° 0 mm 3 mps 754 mmHg 80%
    15:00 -2°C° 0 mm 3 mps 754 mmHg 84%
    16:00 -4°C° 0 mm 3 mps 754 mmHg 87%
    17:00 -5°C° 0 mm 3 mps 754 mmHg 90%
    18:00 -5°C° 0 mm 3 mps 754 mmHg 91%
    19:00 -4°C° 0 mm 2 mps 754 mmHg 92%
    20:00 -5°C° 0 mm 2 mps 754 mmHg 92%
    21:00 -5°C° 0 mm 2 mps 754 mmHg 93%
    22:00 -5°C° 0 mm 2 mps 755 mmHg 94%
    23:00 -5°C° 0 mm 2 mps 755 mmHg 94%

    22 November, Thursday

    Time Temperature Precipitation Wind Pressure Humidity
    00:00 -5°C° 0 mm 2 mps 755 mmHg 94%
    01:00 -5°C° 0 mm 2 mps 755 mmHg 95%
    02:00 -5°C° 0 mm 2 mps 755 mmHg 95%
    03:00 -5°C° 0 mm 2 mps 755 mmHg 95%
    04:00 -6°C° 0 mm 2 mps 755 mmHg 95%
    05:00 -7°C° 0 mm 3 mps 755 mmHg 96%
    06:00 -7°C° 0 mm 3 mps 755 mmHg 96%
    07:00 -7°C° 0 mm 3 mps 755 mmHg 96%
    08:00 -6°C° 0 mm 2 mps 755 mmHg 96%
    09:00 -6°C° 0 mm 3 mps 755 mmHg 92%
    10:00 -5°C° 0 mm 3 mps 755 mmHg 87%
    11:00 -4°C° 0 mm 3 mps 755 mmHg 83%
    12:00 -2°C° 0 mm 3 mps 755 mmHg 81%
    13:00 -2°C° 0 mm 3 mps 755 mmHg 79%
    14:00 -2°C° 0 mm 2 mps 755 mmHg 78%
    15:00 -3°C° 0 mm 2 mps 755 mmHg 81%
    16:00 -3°C° 0 mm 2 mps 755 mmHg 84%
    17:00 -4°C° 0 mm 2 mps 755 mmHg 87%
    18:00 -4°C° 0 mm 2 mps 755 mmHg 87%
    19:00 -6°C° 0 mm 3 mps 755 mmHg 87%
    20:00 -6°C° 0 mm 3 mps 755 mmHg 88%
    21:00 -6°C° 0 mm 3 mps 755 mmHg 88%
    22:00 -6°C° 0 mm 3 mps 755 mmHg 88%
    23:00 -6°C° 0 mm 3 mps 755 mmHg 88%

    23 November, Friday

    Time Temperature Precipitation Wind Pressure Humidity
    00:00 -6°C° 0 mm 3 mps 755 mmHg 88%
    01:00 -6°C° 0 mm 3 mps 755 mmHg 89%
    02:00 -6°C° 0 mm 3 mps 755 mmHg 89%
    03:00 -7°C° 0 mm 3 mps 756 mmHg 90%
    04:00 -7°C° 0 mm 3 mps 756 mmHg 91%
    05:00 -7°C° 0 mm 3 mps 756 mmHg 92%
    06:00 -7°C° 0 mm 3 mps 756 mmHg 93%
    07:00 -7°C° 0 mm 3 mps 757 mmHg 93%
    08:00 -7°C° 0 mm 3 mps 757 mmHg 94%
    09:00 -6°C° 0 mm 3 mps 758 mmHg 92%
    10:00 -6°C° 0 mm 3 mps 758 mmHg 89%
    11:00 -5°C° 0 mm 3 mps 758 mmHg 87%
    12:00 -4°C° 0 mm 2 mps 758 mmHg 86%
    13:00 -3°C° 0 mm 2 mps 759 mmHg 84%
    14:00 -1°C° 0 mm 1 mps 759 mmHg 83%
    15:00 -1°C° 0 mm 1 mps 759 mmHg 85%
    16:00 -2°C° 0 mm 1 mps 759 mmHg 88%
    17:00 -2°C° 0 mm 1 mps 759 mmHg 90%
    18:00 -3°C° 0 mm 1 mps 759 mmHg 90%
    19:00 -3°C° 0 mm 1 mps 759 mmHg 91%
    20:00 -4°C° 0 mm 0 mps 759 mmHg 92%
    21:00 -3°C° 0 mm 1 mps 759 mmHg 92%
    22:00 -4°C° 0 mm 1 mps 759 mmHg 93%
    23:00 -4°C° 0 mm 1 mps 759 mmHg 93%

    24 November, Saturday

    Time Temperature Precipitation Wind Pressure Humidity
    00:00 -6°C° 0 mm 2 mps 759 mmHg 94%
    01:00 -6°C° 0 mm 2 mps 759 mmHg 94%
    02:00 -6°C° 0 mm 2 mps 759 mmHg 94%
    03:00 -7°C° 0 mm 2 mps 759 mmHg 95%
    04:00 -7°C° 0 mm 2 mps 758 mmHg 95%
    05:00 -7°C° 0 mm 2 mps 758 mmHg 95%
    06:00 -7°C° 0 mm 2 mps 758 mmHg 95%
    07:00 -7°C° 0 mm 2 mps 758 mmHg 95%
    08:00 -7°C° 0 mm 2 mps 758 mmHg 94%
    09:00 -7°C° 0 mm 3 mps 758 mmHg 91%
    10:00 -6°C° 0 mm 3 mps 757 mmHg 87%
    11:00 -5°C° 0 mm 3 mps 757 mmHg 83%
    12:00 -5°C° 0 mm 3 mps 757 mmHg 82%
    13:00 -4°C° 0 mm 3 mps 756 mmHg 82%
    14:00 -4°C° 0 mm 3 mps 756 mmHg 81%
    15:00 -5°C° 0 mm 3 mps 755 mmHg 84%
    16:00 -6°C° 0 mm 3 mps 755 mmHg 88%
    17:00 -6°C° 0 mm 3 mps 755 mmHg 91%
    18:00 -7°C° 0 mm 3 mps 755 mmHg 90%
    19:00 -7°C° 0 mm 3 mps 755 mmHg 89%
    20:00 -7°C° 0 mm 3 mps 754 mmHg 89%
    21:00 -7°C° 0 mm 3 mps 754 mmHg 88%
    22:00 -7°C° 0 mm 3 mps 754 mmHg 87%
    23:00 -7°C° 0 mm 3 mps 754 mmHg 86%
    Show more